Orbital Elements at Epoch 2459200.5 (2020-Dec-17.0) TDB
Reference: JPL 16 (heliocentric ecliptic J2000)
Element | Value | Uncertainty (1-sigma) | Units |
e | .1979236843733276 | 4.2861e-08 | |
a | 2.390489299304611 | 1.7372e-08 | au |
q | 1.917354849731228 | 1.0687e-07 | au |
i | 6.51325232466623 | 5.3325e-06 | deg |
node | 318.6106803787214 | 4.3154e-05 | deg |
peri | 84.00301399190673 | 4.6101e-05 | deg |
M | 264.6248941012836 | 1.9616e-05 | deg |
tp | 2459558.152417750282 (2021-Dec-09.65241775) | 7.6571e-05 | TDB |
period | 1349.984035947836 3.70 | 1.4716e-05 4.029e-08 | d yr |
n | .2666698200969767 | 2.9069e-09 | deg/d |
Q | 2.863623748877994 | 2.081e-08 | au |
|
| | Orbit Determination Parameters
Additional Information
|